NKS553 KTPA-KFLL

Flight info

Callsign NKS553
Flight time 0h 49m
Altitude 21000
Route GANDY8 SABEE TEEKY4
Aircraft A320/M-SDE3FGHIRWY/LB1

Departure

Time 2026-05-03 22:15
Airport Tampa International Airport (KTPA)

Arrival

Time 2026-05-03 23:04
Airport Fort Lauderdale Hollywood International Airport (KFLL)
Time Latitude Longitude Altitude Speed Heading
2026-05-03 21:54 27.97508 -82.53269 43 ft 0 kts 91°
2026-05-03 22:06 27.97508 -82.53291 50 ft 4 kts 91°
2026-05-03 22:06 27.97509 -82.53319 41 ft 1 kts 91°
2026-05-03 22:06 27.97512 -82.53343 43 ft 4 kts 135°
2026-05-03 22:06 27.97531 -82.53350 40 ft 4 kts 180°
2026-05-03 22:07 27.97543 -82.53350 39 ft 0 kts 180°
2026-05-03 22:09 27.97538 -82.53350 43 ft 2 kts 181°
2026-05-03 22:09 27.97517 -82.53352 43 ft 3 kts 185°
2026-05-03 22:10 27.97461 -82.53366 43 ft 0 kts 181°
2026-05-03 22:10 27.97458 -82.53366 43 ft 0 kts 181°
2026-05-03 22:10 27.97455 -82.53366 43 ft 1 kts 181°
2026-05-03 22:11 27.97422 -82.53361 40 ft 14 kts 159°
2026-05-03 22:11 27.97319 -82.53300 43 ft 15 kts 121°
2026-05-03 22:11 27.97310 -82.53168 43 ft 18 kts 91°
2026-05-03 22:11 27.97302 -82.53023 42 ft 13 kts 101°
2026-05-03 22:12 27.97207 -82.52998 41 ft 20 kts 182°
2026-05-03 22:12 27.97053 -82.53002 36 ft 25 kts 181°
2026-05-03 22:12 27.96881 -82.53007 41 ft 25 kts 182°
2026-05-03 22:12 27.96703 -82.53015 41 ft 25 kts 182°
2026-05-03 22:13 27.96520 -82.53021 41 ft 25 kts 182°
2026-05-03 22:13 27.96454 -82.53006 41 ft 0 kts 134°
2026-05-03 22:13 27.96449 -82.52998 41 ft 6 kts 122°
2026-05-03 22:13 27.96443 -82.52922 38 ft 13 kts 83°
2026-05-03 22:14 27.96511 -82.52898 37 ft 13 kts
2026-05-03 22:14 27.96793 -82.52887 38 ft 76 kts
2026-05-03 22:14 27.97519 -82.52864 38 ft 132 kts
2026-05-03 22:14 27.98583 -82.52848 241 ft 160 kts 359°
2026-05-03 22:15 27.99703 -82.52867 896 ft 161 kts
2026-05-03 22:15 28.00836 -82.52842 1506 ft 170 kts
2026-05-03 22:15 28.02095 -82.52829 1836 ft 192 kts
2026-05-03 22:15 28.03512 -82.52819 2146 ft 216 kts
2026-05-03 22:16 28.05103 -82.52809 2581 ft 241 kts
2026-05-03 22:16 28.06783 -82.52514 3210 ft 254 kts 25°
2026-05-03 22:16 28.08177 -82.51300 4105 ft 258 kts 53°
2026-05-03 22:16 28.08969 -82.49424 5005 ft 265 kts 71°
2026-05-03 22:17 28.09496 -82.47416 5822 ft 274 kts 73°
2026-05-03 22:17 28.10007 -82.45300 6616 ft 283 kts 73°
2026-05-03 22:17 28.10536 -82.43127 7398 ft 290 kts 73°
2026-05-03 22:17 28.11084 -82.40895 8166 ft 298 kts 73°
2026-05-03 22:18 28.11599 -82.38585 8897 ft 307 kts 82°
2026-05-03 22:18 28.11490 -82.36158 9612 ft 313 kts 108°
2026-05-03 22:18 28.10538 -82.33953 10312 ft 313 kts 133°
2026-05-03 22:18 28.08881 -82.32312 10632 ft 324 kts 157°
2026-05-03 22:19 28.06714 -82.31606 10972 ft 328 kts 182°
2026-05-03 22:19 28.04475 -82.31971 11609 ft 324 kts 204°
2026-05-03 22:19 28.02552 -82.33231 11902 ft 319 kts 221°
2026-05-03 22:19 28.00839 -82.34818 11977 ft 318 kts 222°
2026-05-03 22:20 27.99146 -82.36424 11990 ft 317 kts 223°
2026-05-03 22:20 27.97462 -82.38032 11992 ft 317 kts 223°
2026-05-03 22:20 27.95776 -82.39636 11997 ft 317 kts 223°
2026-05-03 22:20 27.94084 -82.41237 11990 ft 317 kts 223°
2026-05-03 22:21 27.92394 -82.42831 11991 ft 316 kts 223°
2026-05-03 22:21 27.90702 -82.44422 11991 ft 316 kts 222°
2026-05-03 22:21 27.89012 -82.46006 11991 ft 316 kts 222°
2026-05-03 22:21 27.87317 -82.47591 11991 ft 316 kts 222°
2026-05-03 22:22 27.85615 -82.49179 12134 ft 321 kts 222°
2026-05-03 22:22 27.84449 -82.50264 12682 ft 321 kts 222°
2026-05-03 22:22 27.82161 -82.52398 13757 ft 323 kts 221°
2026-05-03 22:22 27.80410 -82.54014 14436 ft 325 kts 219°
2026-05-03 22:23 27.79130 -82.54915 14857 ft 330 kts 210°
2026-05-03 22:23 27.76904 -82.55771 15488 ft 340 kts 195°
2026-05-03 22:23 27.74512 -82.55890 16101 ft 353 kts 180°
2026-05-03 22:23 27.72084 -82.55199 16696 ft 368 kts 165°
2026-05-03 22:24 27.69741 -82.54082 17284 ft 372 kts 164°
2026-05-03 22:24 27.67315 -82.52920 17879 ft 376 kts 164°
2026-05-03 22:24 27.64890 -82.51760 18432 ft 380 kts 165°
2026-05-03 22:24 27.62444 -82.50596 18929 ft 384 kts 165°
2026-05-03 22:25 27.59968 -82.49424 19470 ft 386 kts 165°
2026-05-03 22:25 27.57483 -82.48249 20006 ft 390 kts 164°
2026-05-03 22:25 27.55036 -82.46861 20535 ft 397 kts 160°
2026-05-03 22:25 27.52605 -82.45398 20934 ft 399 kts 160°
2026-05-03 22:26 27.50186 -82.43939 21042 ft 398 kts 160°
2026-05-03 22:26 27.47771 -82.42477 21068 ft 392 kts 160°
2026-05-03 22:26 27.45339 -82.41007 21068 ft 390 kts 160°
2026-05-03 22:26 27.42946 -82.39570 21064 ft 390 kts 160°
2026-05-03 22:27 27.40550 -82.38140 21064 ft 390 kts 160°
2026-05-03 22:27 27.38150 -82.36710 21062 ft 390 kts 160°
2026-05-03 22:27 27.35787 -82.35299 21061 ft 390 kts 160°
2026-05-03 22:27 27.33391 -82.33863 21058 ft 390 kts 160°
2026-05-03 22:28 27.31000 -82.32428 21059 ft 390 kts 160°
2026-05-03 22:28 27.28603 -82.30987 21059 ft 390 kts 160°
2026-05-03 22:28 27.26200 -82.29549 21033 ft 397 kts 160°
2026-05-03 22:28 27.23742 -82.28092 21056 ft 413 kts 160°
2026-05-03 22:29 27.21140 -82.26552 21056 ft 419 kts 160°
2026-05-03 22:29 27.18563 -82.25012 21054 ft 421 kts 159°
2026-05-03 22:29 27.15979 -82.23462 21047 ft 421 kts 159°
2026-05-03 22:29 27.13394 -82.21912 21049 ft 421 kts 159°
2026-05-03 22:30 27.10823 -82.20358 21050 ft 423 kts 157°
2026-05-03 22:30 27.08400 -82.18421 21051 ft 434 kts 146°
2026-05-03 22:30 27.06292 -82.15937 21070 ft 441 kts 137°
2026-05-03 22:30 27.04290 -82.13326 21067 ft 441 kts 137°
2026-05-03 22:31 27.02288 -82.10714 21080 ft 441 kts 137°
2026-05-03 22:31 27.00287 -82.08112 21077 ft 441 kts 137°
2026-05-03 22:31 26.98275 -82.05502 21075 ft 441 kts 137°
2026-05-03 22:31 26.96269 -82.02904 21083 ft 441 kts 137°
2026-05-03 22:32 26.94259 -82.00307 21051 ft 441 kts 137°
2026-05-03 22:32 26.92279 -81.97751 21064 ft 425 kts 137°
2026-05-03 22:32 26.90371 -81.95280 21072 ft 417 kts 138°
2026-05-03 22:32 26.88476 -81.92833 21074 ft 415 kts 138°
2026-05-03 22:33 26.86583 -81.90395 21073 ft 414 kts 138°
2026-05-03 22:33 26.84690 -81.87964 21073 ft 414 kts 138°
2026-05-03 22:33 26.82799 -81.85534 21069 ft 414 kts 138°
2026-05-03 22:33 26.80909 -81.83102 21068 ft 414 kts 138°
2026-05-03 22:34 26.79022 -81.80669 21066 ft 414 kts 138°
2026-05-03 22:34 26.77136 -81.78235 21065 ft 414 kts 138°
2026-05-03 22:34 26.75246 -81.75799 21064 ft 414 kts 138°
2026-05-03 22:34 26.73355 -81.73367 21067 ft 414 kts 138°
2026-05-03 22:35 26.71464 -81.70935 21060 ft 414 kts 138°
2026-05-03 22:35 26.69571 -81.68503 21064 ft 415 kts 138°
2026-05-03 22:35 26.67674 -81.66071 21064 ft 415 kts 138°
2026-05-03 22:35 26.65780 -81.63646 21060 ft 415 kts 138°
2026-05-03 22:36 26.63883 -81.61220 21068 ft 414 kts 138°
2026-05-03 22:36 26.61986 -81.58792 21040 ft 414 kts 138°
2026-05-03 22:36 26.60090 -81.56364 21052 ft 414 kts 138°
2026-05-03 22:36 26.58201 -81.53943 20860 ft 414 kts 137°
2026-05-03 22:37 26.56327 -81.51537 20603 ft 409 kts 137°
2026-05-03 22:37 26.54461 -81.49146 20361 ft 408 kts 137°
2026-05-03 22:37 26.52598 -81.46764 20124 ft 406 kts 137°
2026-05-03 22:37 26.50738 -81.44391 19790 ft 405 kts 137°
2026-05-03 22:38 26.48918 -81.42066 19466 ft 398 kts 137°
2026-05-03 22:38 26.47133 -81.39777 19355 ft 385 kts 137°
2026-05-03 22:38 26.45402 -81.37559 19230 ft 373 kts 138°
2026-05-03 22:38 26.43723 -81.35416 19088 ft 363 kts 138°
2026-05-03 22:39 26.42065 -81.33307 18845 ft 359 kts 138°
2026-05-03 22:39 26.40420 -81.31220 18612 ft 356 kts 138°
2026-05-03 22:39 26.38831 -81.29190 18446 ft 339 kts 139°
2026-05-03 22:39 26.37264 -81.27206 17563 ft 344 kts 139°
2026-05-03 22:40 26.35668 -81.25202 16809 ft 345 kts 138°
2026-05-03 22:40 26.34082 -81.23203 16152 ft 343 kts 138°
2026-05-03 22:40 26.32519 -81.21221 15537 ft 340 kts 137°
2026-05-03 22:40 26.30970 -81.19252 14936 ft 336 kts 137°
2026-05-03 22:41 26.29434 -81.17294 14344 ft 333 kts 137°
2026-05-03 22:41 26.27909 -81.15343 13893 ft 336 kts 136°
2026-05-03 22:41 26.26409 -81.13377 13483 ft 329 kts 135°
2026-05-03 22:41 26.24946 -81.11438 12868 ft 326 kts 135°
2026-05-03 22:42 26.23498 -81.09514 12308 ft 323 kts 135°
2026-05-03 22:42 26.22046 -81.07592 11891 ft 325 kts 135°
2026-05-03 22:42 26.20586 -81.05663 11492 ft 326 kts 134°
2026-05-03 22:42 26.19143 -81.03761 11194 ft 322 kts 134°
2026-05-03 22:43 26.17689 -81.01852 10872 ft 320 kts 134°
2026-05-03 22:43 26.16268 -80.99982 10635 ft 314 kts 134°
2026-05-03 22:43 26.15053 -80.97962 10332 ft 316 kts 119°
2026-05-03 22:43 26.14313 -80.95641 9860 ft 324 kts 103°
2026-05-03 22:44 26.13919 -80.93176 9599 ft 319 kts 102°
2026-05-03 22:44 26.13533 -80.90768 9327 ft 315 kts 101°
2026-05-03 22:44 26.13416 -80.88891 9085 ft 313 kts 84°
2026-05-03 22:44 26.13998 -80.86012 8685 ft 311 kts 73°
2026-05-03 22:45 26.14602 -80.83713 8378 ft 308 kts 73°
2026-05-03 22:45 26.15215 -80.81433 8091 ft 306 kts 73°
2026-05-03 22:45 26.15824 -80.79174 8018 ft 305 kts 73°
2026-05-03 22:45 26.16439 -80.76913 8028 ft 306 kts 73°
2026-05-03 22:46 26.17049 -80.74671 8029 ft 307 kts 73°
2026-05-03 22:46 26.17669 -80.72402 8028 ft 306 kts 73°
2026-05-03 22:46 26.18289 -80.70132 8029 ft 307 kts 73°
2026-05-03 22:46 26.18984 -80.67592 8028 ft 307 kts 73°
2026-05-03 22:47 26.19541 -80.65560 8029 ft 307 kts 72°
2026-05-03 22:47 26.20399 -80.63438 8024 ft 303 kts 52°
2026-05-03 22:47 26.21905 -80.61923 8023 ft 284 kts 27°
2026-05-03 22:47 26.23597 -80.60909 8020 ft 269 kts 23°
2026-05-03 22:48 26.25226 -80.59997 8023 ft 257 kts 23°
2026-05-03 22:48 26.26813 -80.59113 8028 ft 254 kts 22°
2026-05-03 22:48 26.28396 -80.58230 8027 ft 254 kts 23°
2026-05-03 22:48 26.29975 -80.57350 8026 ft 254 kts 22°
2026-05-03 22:49 26.31555 -80.56469 8029 ft 254 kts 22°
2026-05-03 22:49 26.33131 -80.55590 8029 ft 254 kts 23°
2026-05-03 22:49 26.34576 -80.54454 8026 ft 258 kts 48°
2026-05-03 22:49 26.35375 -80.52679 8026 ft 260 kts 80°
2026-05-03 22:50 26.35499 -80.50671 8026 ft 260 kts 91°
2026-05-03 22:50 26.35470 -80.48661 8023 ft 260 kts 92°
2026-05-03 22:50 26.35421 -80.46648 8024 ft 260 kts 92°
2026-05-03 22:50 26.35371 -80.44635 8021 ft 259 kts 92°
2026-05-03 22:51 26.35321 -80.42626 8020 ft 260 kts 92°
2026-05-03 22:51 26.35270 -80.40616 8023 ft 260 kts 92°
2026-05-03 22:51 26.35217 -80.38590 8017 ft 260 kts 92°
2026-05-03 22:51 26.35166 -80.36577 8017 ft 260 kts 92°
2026-05-03 22:52 26.35113 -80.34569 8027 ft 260 kts 92°
2026-05-03 22:52 26.35063 -80.32557 8027 ft 260 kts 92°
2026-05-03 22:52 26.35015 -80.30542 8026 ft 260 kts 92°
2026-05-03 22:52 26.34965 -80.28530 8027 ft 260 kts 92°
2026-05-03 22:53 26.34916 -80.26516 8029 ft 260 kts 92°
2026-05-03 22:53 26.34820 -80.24512 8026 ft 258 kts 103°
2026-05-03 22:53 26.34104 -80.22744 8023 ft 249 kts 135°
2026-05-03 22:53 26.32729 -80.21660 8023 ft 240 kts 167°
2026-05-03 22:54 26.31106 -80.21361 8020 ft 237 kts 180°
2026-05-03 22:54 26.29458 -80.21267 8017 ft 237 kts 182°
2026-05-03 22:54 26.27818 -80.21205 7945 ft 236 kts 182°
2026-05-03 22:54 26.26175 -80.21144 7776 ft 235 kts 182°
2026-05-03 22:55 26.24545 -80.21082 7506 ft 235 kts 182°
2026-05-03 22:55 26.22915 -80.21027 7203 ft 234 kts 183°
2026-05-03 22:55 26.21295 -80.20971 6947 ft 232 kts 182°
2026-05-03 22:55 26.19688 -80.20916 6674 ft 230 kts 182°
2026-05-03 22:56 26.18093 -80.20918 6366 ft 227 kts 194°
2026-05-03 22:56 26.16717 -80.21635 6075 ft 216 kts 227°
2026-05-03 22:56 26.15988 -80.23046 5766 ft 212 kts 258°
2026-05-03 22:56 26.15830 -80.24688 5410 ft 214 kts 266°
2026-05-03 22:57 26.15774 -80.26347 5092 ft 215 kts 268°
2026-05-03 22:57 26.15721 -80.28003 5005 ft 213 kts 267°
2026-05-03 22:57 26.15675 -80.29656 5008 ft 213 kts 268°
2026-05-03 22:57 26.15633 -80.31268 4935 ft 205 kts 268°
2026-05-03 22:58 26.15597 -80.32808 4810 ft 198 kts 268°
2026-05-03 22:58 26.15561 -80.34314 4683 ft 191 kts 268°
2026-05-03 22:58 26.15526 -80.35757 4518 ft 184 kts 267°
2026-05-03 22:58 26.15491 -80.37179 4249 ft 184 kts 268°
2026-05-03 22:59 26.15302 -80.38481 3953 ft 184 kts 244°
2026-05-03 22:59 26.14344 -80.39545 3602 ft 188 kts 205°
2026-05-03 22:59 26.13037 -80.39671 3213 ft 198 kts 165°
2026-05-03 22:59 26.11873 -80.38817 2975 ft 206 kts 128°
2026-05-03 23:00 26.11071 -80.37504 2970 ft 200 kts 123°
2026-05-03 23:00 26.10346 -80.36229 2982 ft 196 kts 123°
2026-05-03 23:00 26.09641 -80.34961 2995 ft 192 kts 123°
2026-05-03 23:00 26.08924 -80.33667 3009 ft 197 kts 122°
2026-05-03 23:01 26.08207 -80.32377 2998 ft 197 kts 121°
2026-05-03 23:01 26.07757 -80.30922 2649 ft 209 kts 94°
2026-05-03 23:01 26.07738 -80.29266 2252 ft 219 kts 89°
2026-05-03 23:01 26.07745 -80.27560 1932 ft 221 kts 89°
2026-05-03 23:02 26.07741 -80.25848 1636 ft 221 kts 89°
2026-05-03 23:02 26.07733 -80.24163 1336 ft 213 kts 89°
2026-05-03 23:02 26.07725 -80.22582 1078 ft 193 kts 88°
2026-05-03 23:02 26.07716 -80.21180 875 ft 168 kts 88°
2026-05-03 23:03 26.07710 -80.19971 652 ft 148 kts 88°
2026-05-03 23:03 26.07697 -80.18860 477 ft 142 kts 86°
2026-05-03 23:03 26.07696 -80.17776 255 ft 138 kts 88°
2026-05-03 23:03 26.07690 -80.16715 101 ft 137 kts 85°
2026-05-03 23:04 26.07695 -80.15700 17 ft 113 kts 90°
2026-05-03 23:04 26.07690 -80.15017 16 ft 64 kts 91°
2026-05-03 23:04 26.07673 -80.14704 19 ft 30 kts 104°
2026-05-03 23:04 26.07587 -80.14525 18 ft 18 kts 136°
2026-05-03 23:05 26.07570 -80.14514 17 ft 0 kts 156°
2026-05-03 23:05 26.07569 -80.14514 17 ft 1 kts 156°
2026-05-03 23:05 26.07562 -80.14511 17 ft 0 kts 157°
2026-05-03 23:06 26.07559 -80.14510 17 ft 2 kts 162°
2026-05-03 23:06 26.07531 -80.14508 18 ft 6 kts 178°
2026-05-03 23:06 26.07493 -80.14480 16 ft 9 kts 113°
2026-05-03 23:07 26.07478 -80.14394 16 ft 11 kts 129°
2026-05-03 23:07 26.07432 -80.14394 16 ft 7 kts 180°
2026-05-03 23:07 26.07395 -80.14394 16 ft 1 kts 180°
2026-05-03 23:07 26.07390 -80.14394 16 ft 0 kts 181°